User: anonymous   Login
Location: Fort Wayne
(41.1310°N, 85.1290°W)
Time: 12:37:11
(UTC-04:00)
Language:

Helios 1B - Orbit

View from above orbital plane
View from above orbital plane
View from above satellite
View from above satellite

Ground track
Ground track

The orbit data is extracted from the following two-line orbital elements,

1 25977U 99064A   16241.37793528  .00000229  00000-0  35727-4 0  9997
2 25977  98.1383 341.8289 0002304 121.3473 238.7965 14.82104373900630
Epoch (UTC): 28 August 2016 09:04:13
Eccentricity: 0.0002304
inclination: 98.1383°
perigee height: 621 km
apogee height: 624 km
right ascension of ascending node: 341.8289°
argument of perigee: 121.3473°
revolutions per day: 14.82104373
mean anomaly at epoch: 238.7965°
orbit number at epoch: 90063

The dashed part of the orbit path shows where the satellite is in the earth's shadow,  

DLR